| time (UTC) | temp F | wind direction | speed knots | gust knots | rain 1hr in | rain 24hr in | rain mn in | humidity % | barometer mb |
| 20260504160314 | 58 | 229 | 7.0 | 13.9 | 0.00 | 0.00 | 0.00 | 43 | 1009.1 |
| 20260504150739 | 58 | 212 | 4.3 | 18.2 | 0.00 | 0.00 | 0.00 | 44 | 1009.4 |
| 20260504150236 | 58 | 292 | 2.6 | 14.8 | 0.00 | 0.00 | 0.00 | 46 | 1009.5 |
| 20260504141205 | 56 | 333 | 2.6 | 7.8 | 0.00 | 0.00 | 0.00 | 48 | 1009.4 |
| 20260504140702 | 56 | 248 | 12.2 | 15.6 | 0.00 | 0.00 | 0.00 | 45 | 1009.6 |
| 20260504140157 | 56 | 255 | 6.1 | 16.5 | 0.00 | 0.00 | 0.00 | 46 | 1009.6 |
| 20260504130626 | 52 | 301 | 5.2 | 7.8 | 0.00 | 0.00 | 0.00 | 51 | 1010.1 |
| 20260504130123 | 52 | 207 | 3.5 | 12.2 | 0.00 | 0.00 | 0.00 | 52 | 1009.9 |
| 20260504110515 | 42 | 167 | 0.9 | 6.1 | 0.00 | 0.00 | 0.00 | 67 | 1010.4 |
| 20260504100436 | 39 | 190 | 0.0 | 1.7 | 0.00 | 0.00 | 0.00 | 75 | 1009.9 |
| 20260504081829 | 40 | 180 | 0.0 | 1.7 | 0.00 | 0.00 | 0.00 | 72 | 1010.1 |
| 20260504081326 | 40 | 143 | 1.7 | 2.6 | 0.00 | 0.00 | 0.00 | 72 | 1009.8 |
| 20260504080821 | 41 | 164 | 2.6 | 2.6 | 0.00 | 0.00 | 0.00 | 70 | 1009.8 |
| 20260504080319 | 41 | 134 | 2.6 | 2.6 | 0.00 | 0.00 | 0.00 | 69 | 1009.9 |
| 20260504070246 | 41 | 113 | 0.0 | 1.7 | 0.00 | 0.00 | 0.00 | 73 | 1009.7 |
| 20260504060207 | 42 | 151 | 1.7 | 2.6 | 0.00 | 0.00 | 0.00 | 63 | 1009.7 |
| 20260504050635 | 42 | 136 | 0.9 | 1.7 | 0.00 | 0.00 | 0.00 | 61 | 1010.4 |
| 20260504050132 | 42 | 212 | 0.0 | 2.6 | 0.00 | 0.00 | 0.00 | 61 | 1010.4 |
| 20260504045629 | 42 | 172 | 1.7 | 3.5 | 0.00 | 0.00 | 0.00 | 59 | 1010.4 |
| 20260504045129 | 42 | 190 | 0.9 | 2.6 | 0.00 | 0.00 | 0.00 | 60 | 1010.3 |
| 20260504044627 | 42 | 174 | 0.9 | 1.7 | 0.00 | 0.00 | 0.00 | 60 | 1010.5 |
| 20260504044124 | 42 | 113 | 0.0 | 0.9 | 0.00 | 0.00 | 0.00 | 60 | 1010.6 |
| 20260504043621 | 42 | 187 | 1.7 | 2.6 | 0.00 | 0.00 | 0.00 | 58 | 1010.5 |
| 20260504043118 | 42 | 193 | 0.0 | 3.5 | 0.00 | 0.00 | 0.00 | 58 | 1010.4 |
| 20260504042615 | 42 | 245 | 4.3 | 6.1 | 0.00 | 0.00 | 0.00 | 57 | 1010.4 |
| 20260504042112 | 42 | 221 | 0.9 | 2.6 | 0.00 | 0.00 | 0.00 | 57 | 1010.4 |
| 20260504041607 | 41 | 178 | 1.7 | 2.6 | 0.00 | 0.00 | 0.00 | 57 | 1010.2 |
| 20260504041104 | 42 | 242 | 1.7 | 4.3 | 0.00 | 0.00 | 0.00 | 56 | 1010.3 |
| 20260504040602 | 41 | 150 | 0.0 | 1.7 | 0.00 | 0.00 | 0.00 | 59 | 1009.9 |
| 20260504040058 | 42 | 344 | 0.9 | 4.3 | 0.00 | 0.00 | 0.00 | 60 | 1010.1 |
| 20260504035555 | 42 | 198 | 0.9 | 1.7 | 0.00 | 0.00 | 0.00 | 56 | 1010.1 |
| 20260504035051 | 42 | 170 | 1.7 | 2.6 | 0.00 | 0.00 | 0.00 | 54 | 1010.1 |
| 20260504034549 | 41 | 189 | 1.7 | 3.5 | 0.00 | 0.00 | 0.00 | 54 | 1010.1 |
| 20260504034046 | 41 | 267 | 1.7 | 2.6 | 0.00 | 0.00 | 0.00 | 54 | 1010.1 |
| 20260504033544 | 41 | 173 | 1.7 | 4.3 | 0.00 | 0.00 | 0.00 | 55 | 1010.1 |
| 20260504033041 | 41 | 161 | 1.7 | 4.3 | 0.00 | 0.00 | 0.00 | 55 | 1009.9 |
| 20260504032538 | 41 | 175 | 0.0 | 2.6 | 0.00 | 0.00 | 0.00 | 55 | 1009.9 |
| 20260504032034 | 41 | 179 | 0.0 | 2.6 | 0.00 | 0.00 | 0.00 | 54 | 1010.1 |
| 20260504031531 | 41 | 95 | 1.7 | 2.6 | 0.00 | 0.00 | 0.00 | 55 | 1009.7 |
| 20260504031027 | 41 | 124 | 0.0 | 1.7 | 0.00 | 0.00 | 0.00 | 54 | 1009.6 |
| 20260504030525 | 41 | 100 | 0.9 | 2.6 | 0.00 | 0.00 | 0.00 | 53 | 1009.6 |
| 20260504030021 | 41 | 185 | 1.7 | 2.6 | 0.00 | 0.00 | 0.00 | 53 | 1009.7 |
| 20260504025518 | 42 | 84 | 0.9 | 1.7 | 0.00 | 0.00 | 0.00 | 53 | 1009.9 |
| 20260504025015 | 42 | 77 | 0.9 | 4.3 | 0.00 | 0.00 | 0.00 | 52 | 1009.9 |
| 20260504024512 | 42 | 266 | 0.0 | 2.6 | 0.00 | 0.00 | 0.00 | 52 | 1009.8 |
| 20260504024009 | 42 | 217 | 0.0 | 2.6 | 0.00 | 0.00 | 0.00 | 52 | 1009.8 |
| 20260504023505 | 42 | 181 | 2.6 | 3.5 | 0.00 | 0.00 | 0.00 | 52 | 1009.9 |
| 20260504023001 | 41 | 123 | 1.7 | 3.5 | 0.00 | 0.00 | 0.00 | 53 | 1009.8 |
| 20260504022457 | 41 | 269 | 1.7 | 5.2 | 0.00 | 0.00 | 0.00 | 52 | 1009.8 |
| 20260504021954 | 41 | 224 | 0.0 | 2.6 | 0.00 | 0.00 | 0.00 | 53 | 1010.1 |
| 20260504021452 | 41 | 105 | 1.7 | 4.3 | 0.00 | 0.00 | 0.00 | 52 | 1009.8 |
| 20260504020949 | 41 | 106 | 1.7 | 4.3 | 0.00 | 0.00 | 0.00 | 52 | 1009.7 |
| 20260504020445 | 41 | 4 | 1.7 | 6.1 | 0.00 | 0.00 | 0.00 | 53 | 1009.9 |
| 20260504015942 | 39 | 58 | 1.7 | 3.5 | 0.00 | 0.00 | 0.00 | 56 | 1009.7 |
| 20260504015438 | 40 | 55 | 2.6 | 2.6 | 0.00 | 0.00 | 0.00 | 54 | 1009.7 |
| 20260504014934 | 41 | 65 | 1.7 | 4.3 | 0.00 | 0.00 | 0.00 | 52 | 1009.7 |
| 20260504014430 | 41 | 32 | 3.5 | 3.5 | 0.00 | 0.00 | 0.00 | 51 | 1009.6 |
| 20260504013927 | 41 | 61 | 0.9 | 3.5 | 0.00 | 0.00 | 0.00 | 50 | 1009.6 |
| 20260504013426 | 41 | 21 | 1.7 | 2.6 | 0.00 | 0.00 | 0.00 | 52 | 1009.7 |
| 20260504012926 | 41 | 101 | 1.7 | 2.6 | 0.00 | 0.00 | 0.00 | 50 | 1009.7 |
| 20260504012425 | 41 | 48 | 0.9 | 3.5 | 0.00 | 0.00 | 0.00 | 49 | 1009.5 |
| 20260504011922 | 42 | 120 | 1.7 | 2.6 | 0.00 | 0.00 | 0.00 | 48 | 1009.5 |
| 20260504011419 | 42 | 125 | 1.7 | 1.7 | 0.00 | 0.00 | 0.00 | 47 | 1009.5 |
| 20260504010914 | 42 | 120 | 1.7 | 2.6 | 0.00 | 0.00 | 0.00 | 47 | 1009.3 |
| 20260504010411 | 42 | 203 | 1.7 | 2.6 | 0.00 | 0.00 | 0.00 | 46 | 1009.4 |
| 20260504005907 | 42 | 274 | 1.7 | 7.0 | 0.00 | 0.00 | 0.00 | 45 | 1009.1 |
| 20260504005403 | 42 | 113 | 0.9 | 2.6 | 0.00 | 0.00 | 0.00 | 46 | 1009.2 |
| 20260504004901 | 42 | 87 | 1.7 | 2.6 | 0.00 | 0.00 | 0.00 | 47 | 1009.3 |
| 20260504004359 | 42 | 77 | 2.6 | 3.5 | 0.00 | 0.00 | 0.00 | 48 | 1009.0 |
| 20260504003855 | 41 | 181 | 0.9 | 2.6 | 0.00 | 0.00 | 0.00 | 47 | 1008.9 |
| 20260504003352 | 42 | 160 | 0.0 | 2.6 | 0.00 | 0.00 | 0.00 | 47 | 1008.8 |
| 20260504002849 | 42 | 151 | 0.0 | 1.7 | 0.00 | 0.00 | 0.00 | 47 | 1008.7 |
| 20260504002345 | 42 | 107 | 1.7 | 1.7 | 0.00 | 0.00 | 0.00 | 47 | 1008.8 |
| 20260504001843 | 42 | 106 | 1.7 | 3.5 | 0.00 | 0.00 | 0.00 | 47 | 1008.9 |
| 20260504001340 | 42 | 275 | 2.6 | 4.3 | 0.00 | 0.00 | 0.00 | 46 | 1008.8 |
| 20260504000837 | 43 | 326 | 0.9 | 2.6 | 0.00 | 0.00 | 0.00 | 46 | 1008.6 |
| 20260504000334 | 43 | 212 | 0.0 | 3.5 | 0.00 | 0.00 | 0.00 | 46 | 1008.6 |
| 20260503235831 | 43 | 257 | 0.0 | 0.9 | 0.00 | 0.00 | 0.00 | 46 | 1008.5 |
| 20260503235329 | 43 | 81 | 1.7 | 1.7 | 0.00 | 0.00 | 0.00 | 46 | 1008.7 |
| 20260503234826 | 44 | 322 | 0.0 | 1.7 | 0.00 | 0.00 | 0.00 | 46 | 1008.4 |
| 20260503234324 | 44 | 229 | 0.0 | 3.5 | 0.00 | 0.00 | 0.00 | 46 | 1008.4 |
| 20260503233822 | 44 | 233 | 0.0 | 1.7 | 0.00 | 0.00 | 0.00 | 46 | 1008.4 |
| 20260503233317 | 45 | 286 | 2.6 | 7.0 | 0.00 | 0.00 | 0.00 | 43 | 1008.5 |
| 20260503232814 | 45 | 237 | 2.6 | 7.8 | 0.00 | 0.00 | 0.00 | 44 | 1008.4 |
| 20260503232311 | 45 | 350 | 2.6 | 2.6 | 0.00 | 0.00 | 0.00 | 47 | 1008.3 |
| 20260503231809 | 45 | 221 | 3.5 | 9.6 | 0.00 | 0.00 | 0.00 | 43 | 1008.2 |
| 20260503231306 | 45 | 339 | 1.7 | 6.1 | 0.00 | 0.00 | 0.00 | 44 | 1008.2 |
| 20260503230802 | 45 | 103 | 0.0 | 1.7 | 0.00 | 0.00 | 0.00 | 46 | 1008.1 |
| 20260503230259 | 45 | 160 | 0.9 | 3.5 | 0.00 | 0.00 | 0.00 | 43 | 1008.2 |
| 20260503225757 | 45 | 243 | 2.6 | 4.3 | 0.00 | 0.00 | 0.00 | 44 | 1008.2 |
| 20260503225252 | 46 | 40 | 2.6 | 11.3 | 0.00 | 0.00 | 0.00 | 44 | 1008.3 |
| 20260503224749 | 46 | 166 | 0.0 | 6.1 | 0.00 | 0.00 | 0.00 | 42 | 1008.2 |
| 20260503224246 | 46 | 290 | 0.0 | 7.8 | 0.00 | 0.00 | 0.00 | 43 | 1008.1 |
| 20260503223744 | 46 | 279 | 1.7 | 7.8 | 0.00 | 0.00 | 0.00 | 43 | 1008.2 |
| 20260503223241 | 47 | 206 | 3.5 | 7.8 | 0.00 | 0.00 | 0.00 | 43 | 1008.1 |
| 20260503222737 | 46 | 338 | 1.7 | 3.5 | 0.00 | 0.00 | 0.00 | 42 | 1008.1 |
| 20260503222236 | 46 | 337 | 2.6 | 11.3 | 0.00 | 0.00 | 0.00 | 43 | 1008.2 |
| 20260503221734 | 46 | 259 | 1.7 | 7.8 | 0.00 | 0.00 | 0.00 | 43 | 1008.1 |
| 20260503221231 | 46 | 206 | 7.0 | 8.7 | 0.00 | 0.00 | 0.00 | 42 | 1008.0 |
| 20260503220727 | 47 | 219 | 3.5 | 7.0 | 0.00 | 0.00 | 0.00 | 42 | 1008.5 |
| 20260503220224 | 47 | 38 | 2.6 | 20.0 | 0.00 | 0.00 | 0.00 | 44 | 1008.1 |
| 20260503215721 | 48 | 243 | 3.5 | 7.0 | 0.00 | 0.00 | 0.00 | 40 | 1008.2 |
| 20260503215218 | 47 | 210 | 2.6 | 7.0 | 0.00 | 0.00 | 0.00 | 42 | 1008.3 |
| 20260503214716 | 48 | 279 | 1.7 | 6.1 | 0.00 | 0.00 | 0.00 | 43 | 1008.1 |
| 20260503214212 | 47 | 294 | 3.5 | 6.1 | 0.00 | 0.00 | 0.00 | 42 | 1008.1 |
| 20260503213711 | 45 | 211 | 4.3 | 7.0 | 0.00 | 0.00 | 0.00 | 45 | 1008.4 |
| 20260503213207 | 45 | 221 | 4.3 | 7.8 | 0.00 | 0.00 | 0.00 | 46 | 1008.2 |
| 20260503212704 | 46 | 206 | 2.6 | 7.8 | 0.00 | 0.00 | 0.00 | 44 | 1007.8 |
| 20260503212202 | 47 | 342 | 0.0 | 10.4 | 0.00 | 0.00 | 0.00 | 46 | 1008.0 |
| 20260503211700 | 46 | 268 | 5.2 | 5.2 | 0.00 | 0.00 | 0.00 | 44 | 1008.1 |
| 20260503211155 | 45 | 20 | 3.5 | 6.1 | 0.00 | 0.00 | 0.00 | 47 | 1008.1 |
| 20260503210651 | 45 | 235 | 1.7 | 4.3 | 0.00 | 0.00 | 0.00 | 45 | 1008.0 |
| 20260503210148 | 45 | 12 | 2.6 | 6.1 | 0.00 | 0.00 | 0.00 | 46 | 1008.0 |
| 20260503205644 | 45 | 18 | 1.7 | 6.1 | 0.00 | 0.00 | 0.00 | 46 | 1008.0 |
| 20260503205140 | 46 | 285 | 4.3 | 7.0 | 0.00 | 0.00 | 0.00 | 44 | 1007.8 |
| 20260503204637 | 47 | 284 | 4.3 | 7.8 | 0.00 | 0.00 | 0.00 | 43 | 1008.0 |
| 20260503204135 | 44 | 308 | 5.2 | 17.4 | 0.00 | 0.00 | 0.00 | 46 | 1008.0 |
| 20260503203631 | 45 | 277 | 3.5 | 17.4 | 0.00 | 0.00 | 0.00 | 45 | 1007.6 |
| 20260503203129 | 46 | 206 | 10.4 | 16.5 | 0.00 | 0.00 | 0.00 | 43 | 1007.7 |
| 20260503202626 | 48 | 290 | 5.2 | 9.6 | 0.00 | 0.00 | 0.00 | 40 | 1008.1 |
| 20260503202124 | 48 | 29 | 3.5 | 7.0 | 0.00 | 0.00 | 0.00 | 42 | 1007.8 |
| 20260503201622 | 46 | 281 | 3.5 | 7.8 | 0.00 | 0.00 | 0.00 | 43 | 1007.8 |
| 20260503201119 | 47 | 11 | 5.2 | 7.8 | 0.00 | 0.00 | 0.00 | 41 | 1007.8 |
| 20260503200615 | 47 | 300 | 2.6 | 9.6 | 0.00 | 0.00 | 0.00 | 44 | 1008.0 |
| 20260503200112 | 48 | 295 | 5.2 | 7.8 | 0.00 | 0.00 | 0.00 | 42 | 1007.8 |
| 20260503195609 | 47 | 31 | 3.5 | 5.2 | 0.00 | 0.00 | 0.00 | 42 | 1008.0 |
| 20260503195105 | 46 | 359 | 2.6 | 7.0 | 0.00 | 0.00 | 0.00 | 46 | 1007.8 |
| 20260503194603 | 45 | 285 | 2.6 | 5.2 | 0.00 | 0.00 | 0.00 | 44 | 1007.8 |
| 20260503194058 | 44 | 339 | 2.6 | 10.4 | 0.00 | 0.00 | 0.00 | 44 | 1007.8 |
| 20260503193555 | 45 | 306 | 4.3 | 9.6 | 0.00 | 0.00 | 0.00 | 44 | 1008.1 |
| 20260503193050 | 45 | 288 | 3.5 | 7.8 | 0.00 | 0.00 | 0.00 | 44 | 1008.2 |
| 20260503192546 | 45 | 268 | 5.2 | 11.3 | 0.00 | 0.00 | 0.00 | 45 | 1008.1 |
| 20260503192042 | 44 | 123 | 5.2 | 10.4 | 0.00 | 0.00 | 0.00 | 44 | 1008.1 |
| 20260503191539 | 45 | 19 | 3.5 | 12.2 | 0.00 | 0.00 | 0.00 | 44 | 1008.0 |
| 20260503191036 | 45 | 152 | 1.7 | 7.0 | 0.00 | 0.00 | 0.00 | 43 | 1008.0 |
| 20260503190533 | 45 | 337 | 2.6 | 9.6 | 0.00 | 0.00 | 0.00 | 46 | 1007.8 |
| 20260503190030 | 45 | 340 | 2.6 | 7.8 | 0.00 | 0.00 | 0.00 | 43 | 1008.0 |
| 20260503185527 | 45 | 269 | 2.6 | 9.6 | 0.00 | 0.00 | 0.00 | 41 | 1007.8 |
| 20260503185026 | 48 | 357 | 4.3 | 7.8 | 0.00 | 0.00 | 0.00 | 40 | 1008.1 |
| 20260503184523 | 48 | 328 | 2.6 | 7.8 | 0.00 | 0.00 | 0.00 | 40 | 1007.8 |
| 20260503184019 | 47 | 1 | 5.2 | 19.1 | 0.00 | 0.00 | 0.00 | 42 | 1007.8 |
| 20260503183516 | 46 | 211 | 4.3 | 10.4 | 0.00 | 0.00 | 0.00 | 43 | 1008.2 |
| 20260503183013 | 45 | 78 | 1.7 | 13.0 | 0.00 | 0.00 | 0.00 | 44 | 1007.8 |
| 20260503182512 | 45 | 244 | 4.3 | 8.7 | 0.00 | 0.00 | 0.00 | 45 | 1008.1 |
| 20260503182009 | 44 | 341 | 4.3 | 10.4 | 0.00 | 0.00 | 0.00 | 45 | 1008.3 |
| 20260503181506 | 44 | 273 | 2.6 | 7.8 | 0.00 | 0.00 | 0.00 | 48 | 1008.1 |
| 20260503181002 | 44 | 304 | 0.9 | 12.2 | 0.00 | 0.00 | 0.00 | 47 | 1008.1 |
| 20260503180500 | 44 | 287 | 6.1 | 7.0 | 0.00 | 0.00 | 0.00 | 48 | 1008.0 |
| 20260503175956 | 44 | 344 | 6.1 | 8.7 | 0.00 | 0.00 | 0.00 | 46 | 1007.8 |
| 20260503175454 | 44 | 40 | 1.7 | 9.6 | 0.00 | 0.00 | 0.00 | 46 | 1008.0 |
| 20260503174945 | 45 | 190 | 7.0 | 19.1 | 0.00 | 0.00 | 0.00 | 45 | 1008.1 |
| 20260503174443 | 45 | 159 | 2.6 | 7.8 | 0.00 | 0.00 | 0.00 | 44 | 1007.8 |
| 20260503173943 | 45 | 223 | 4.3 | 8.7 | 0.00 | 0.00 | 0.00 | 45 | 1008.0 |
| 20260503173439 | 46 | 321 | 8.7 | 8.7 | 0.00 | 0.00 | 0.00 | 46 | 1007.6 |
| 20260503172936 | 46 | 253 | 5.2 | 7.8 | 0.00 | 0.00 | 0.00 | 43 | 1007.6 |
| 20260503172434 | 45 | 249 | 2.6 | 7.0 | 0.00 | 0.00 | 0.00 | 44 | 1007.8 |
| 20260503171930 | 46 | 297 | 7.0 | 9.6 | 0.00 | 0.00 | 0.00 | 43 | 1007.8 |
| 20260503171427 | 46 | 236 | 6.1 | 7.8 | 0.00 | 0.00 | 0.00 | 42 | 1007.7 |
| 20260503170925 | 45 | 243 | 5.2 | 12.2 | 0.00 | 0.00 | 0.00 | 44 | 1008.0 |
| 20260503170420 | 45 | 221 | 3.5 | 5.2 | 0.00 | 0.00 | 0.00 | 47 | 1008.0 |